Wind_Speed
29 30 29 27 28 29 30 37 33 32 28 28 26 21 15 14 25 22 15 24 21 7 5 23 21 19 18 23 6 13 7 3 2 4 6 4 4 7 4 5 8 9 10 4 3 4 8 16 6 7 5 2 1 2
29 28 26 26 29 26 25 33 28 34 31 27 26 20 16 14 20 19 17 19 13 14 6 13 19 25 30 36 25 27 5 10 11 4 3 3 2 3 6 5 4 4 8 8 12 9 4 24 13 18 8 3 3 6
23 20 20 21 20 17 23 28 31 32 31 29 26 20 16 12 14 19 20 13 17 14 9 14 16 18 23 32 33 13 7 13 11 7 6 3 4 4 6 5 4 4 9 3 3 7 15 21 26 26 15 15 12 7
15 14 12 14 12 16 20 26 33 31 28 29 27 21 17 11 10 12 22 20 16 8 4 7 17 23 17 24 31 29 17 22 15 12 4 2 3 9 3 3 7 6 13 7 5 9 10 18 28 29 23 21 19 18
12 15 13 13 13 18 16 25 30 28 29 29 25 21 17 11 7 7 14 28 12 4 4 3 8 21 25 26 26 31 29 26 22 7 2 4 5 4 0 2 3 9 7 6 6 17 13 22 19 13 16 19 16 12
9 11 14 16 17 17 15 24 26 26 28 28 25 23 17 11 7 4 3 14 21 8 3 1 4 10 23 25 26 33 30 24 14 8 5 5 7 8 4 4 6 24 25 26 10 19 14 9 3 5 2 2 4 5
13 16 18 19 19 16 13 22 23 26 28 31 28 21 16 12 10 5 3 7 16 17 2 1 3 6 16 20 18 18 26 16 9 9 7 6 8 10 2 8 5 23 30 30 26 15 9 14 6 6 5 5 5 4
18 18 19 21 17 18 21 20 21 20 34 31 25 19 15 13 10 8 6 9 8 10 7 3 2 5 17 8 6 10 7 9 7 7 7 4 7 3 5 4 17 11 16 24 23 23 22 15 10 9 9 8 9 9
11 17 16 15 16 25 24 25 25 27 28 25 20 16 11 7 4 6 9 11 14 7 3 5 6 4 14 6 7 5 7 2 7 3 4 10 3 6 7 14 20 23 20 13 17 14 15 15 15 13 10 9 8 9
8 11 10 16 20 25 29 30 29 29 27 25 19 6 5 4 7 4 2 4 4 7 7 3 7 4 12 5 3 6 6 4 3 4 11 4 4 13 13 16 19 23 24 21 16 15 15 12 11 10 9 8 8 9
20 12 14 22 28 30 33 33 32 29 25 16 6 4 9 5 5 2 4 5 6 3 9 9 8 5 12 4 3 9 3 4 4 4 6 4 5 4 19 21 20 19 17 16 15 13 9 9 8 7 7 6 6 7
24 12 16 21 26 29 32 30 28 25 12 10 11 12 7 4 3 3 4 1 4 5 8 5 8 10 11 9 3 5 4 3 5 10 5 4 3 7 16 18 16 16 15 14 11 10 9 7 7 6 6 5 5 7
19 18 20 19 28 29 27 24 20 18 20 14 5 4 3 1 1 4 4 3 1 3 7 9 6 10 6 9 4 4 7 5 12 6 5 4 6 11 14 15 14 12 12 11 10 9 9 9 8 7 7 7 8 8
12 14 12 19 22 23 22 21 19 18 6 4 4 3 5 3 4 1 2 2 5 7 12 18 4 3 5 4 2 4 4 6 7 5 6 3 12 13 13 13 12 11 10 9 9 8 8 8 8 8 8 8 8 8
4 5 8 8 13 18 20 19 15 13 4 3 4 3 3 4 3 4 7 6 4 7 6 6 2 5 3 4 5 3 4 7 7 6 2 5 14 13 13 14 12 11 10 8 8 7 7 6 6 5 4 2 2 2
4 4 6 10 11 10 10 13 14 7 4 3 2 2 3 3 3 2 3 4 8 9 5 3 3 2 3 3 5 5 3 3 4 1 11 16 14 13 13 14 14 12 11 11 10 8 8 8 7 6 5 5 4 4
9 5 8 8 11 12 13 13 8 4 4 3 4 9 5 2 3 3 3 3 5 5 3 2 2 3 2 2 1 2 5 3 8 14 17 14 16 16 15 15 15 14 13 12 12 12 12 12 10 9 8 8 7 7
13 10 9 11 10 11 12 7 5 5 4 5 2 5 6 7 5 6 6 9 6 4 3 2 3 2 2 3 3 3 5 13 16 19 19 17 17 17 16 17 17 17 16 15 13 14 12 12 11 12 12 11 9 9
12 10 11 11 11 8 6 6 4 4 5 3 5 7 6 5 10 13 10 8 9 8 3 3 2 2 2 2 3 8 24 19 22 19 18 16 16 16 17 17 16 16 16 15 14 14 14 12 12 12 12 11 10 10
6 6 9 11 12 6 5 4 6 3 4 5 6 7 4 3 5 8 9 8 6 4 1 2 3 4 4 7 9 16 24 27 30 27 20 18 17 16 16 16 17 17 17 16 14 14 13 13 12 11 11 11 9 11
2 3 3 12 17 10 4 5 4 4 4 4 4 6 2 3 3 4 4 5 4 3 2 4 6 10 12 12 12 19 20 24 24 19 28 24 19 16 17 16 15 15 14 16 14 13 12 12 12 11 10 10 10 9
1 1 2 3 3 4 3 3 4 5 4 3 8 5 2 2 3 3 3 2 3 3 4 6 15 19 20 22 21 17 21 19 14 15 17 18 20 18 17 16 15 15 14 13 12 11 12 11 11 10 9 10 10 9
3 3 3 2 2 3 2 7 2 3 2 3 4 2 1 1 2 1 1 3 3 6 8 13 17 20 21 25 24 24 23 19 14 16 19 19 19 17 16 15 14 11 12 13 12 10 11 11 10 8 8 9 8 8
7 4 3 4 2 2 6 2 2 2 2 2 2 2 1 1 2 1 2 2 4 10 13 18 21 22 22 24 23 23 22 19 16 18 19 17 18 17 15 13 12 11 9 9 9 8 7 7 6 6 5 5 6 6
4 0 0 2 3 3 3 2 3 3 2 1 2 1 1 2 1 0 2 2 9 15 16 20 21 20 21 25 24 21 19 17 16 16 17 16 14 12 12 11 10 9 8 7 6 5 5 5 5 4 4 4 4 4
3 2 1 3 0 3 4 4 4 4 3 1 2 1 2 2 2 4 3 5 9 16 21 23 24 25 23 21 23 23 21 20 19 16 14 13 12 10 10 10 11 11 10 9 8 7 6 5 4 4 3 3 4 4
3 3 2 3 3 6 4 4 4 3 3 5 3 2 3 3 4 4 3 6 7 11 14 19 18 17 16 15 19 21 19 19 18 16 14 14 14 14 13 11 12 12 12 11 9 8 6 5 5 5 6 6 6 6
3 2 3 4 3 1 4 2 4 6 3 4 5 3 7 8 5 2 4 8 9 9 11 16 20 20 18 18 17 18 20 20 19 17 16 16 16 15 15 14 13 13 12 11 10 9 8 7 7 7 7 7 7 8
2 3 3 3 2 2 1 3 4 3 5 6 4 3 3 2 2 1 3 5 6 7 8 11 15 17 17 16 18 18 17 18 20 21 20 19 19 18 18 17 16 14 13 11 10 9 9 8 8 8 9 10 10 11
2 2 3 2 3 2 0 1 1 3 4 3 2 3 3 3 4 5 6 8 8 7 8 9 9 10 12 13 15 17 19 19 19 17 16 16 15 17 17 15 14 12 11 11 11 11 11 10 10 12 12 13 13 14
2 1 2 2 1 1 2 2 1 1 2 4 6 6 5 5 5 10 13 13 14 14 14 14 13 12 13 14 15 15 16 16 17 17 17 16 19 18 17 17 16 15 14 13 12 10 12 13 12 13 13 14 14 14
1 2 2 1 1 1 2 2 1 2 2 3 3 4 3 3 5 5 8 17 24 24 19 14 13 11 11 14 15 16 16 15 17 17 17 17 18 18 17 18 17 16 16 16 16 15 14 13 14 15 15 16 17 17
2 1 2 2 2 1 0 0 2 4 2 2 2 2 2 3 6 4 4 7 12 13 11 9 11 11 12 11 11 11 11 11 15 17 17 17 17 16 16 17 18 18 19 18 15 15 16 16 17 17 17 17 18 19
Wind_Direction
273 270 265 260 253 259 248 253 227 224 224 219 217 222 229 236 231 227 209 212 212 200 227 196 194 166 174 176 156 156 114 201 123 149 174 178 181 205 142 165 177 161 163 175 153 210 271 181 111 192 199 149 133 51
268 263 255 258 260 244 245 250 231 217 219 213 215 215 222 232 223 220 218 204 204 204 223 210 205 197 201 194 179 171 184 156 163 154 167 149 172 155 155 210 164 204 182 179 188 200 215 187 223 218 194 187 257 278
262 256 260 269 238 246 246 241 221 209 207 203 207 204 209 215 218 216 209 204 212 214 234 232 208 202 205 207 204 160 202 181 186 161 146 161 198 142 176 225 141 255 182 189 109 220 236 234 233 239 238 257 265 267
249 245 263 260 245 262 254 224 200 200 198 197 200 192 199 201 211 212 201 198 183 168 185 227 215 234 225 205 208 206 217 186 183 178 125 155 199 200 206 184 198 182 149 164 271 274 263 264 251 251 247 258 259 254
258 240 259 262 270 280 242 202 188 194 191 190 187 186 191 190 194 209 206 207 177 172 165 187 214 213 219 221 217 219 211 200 179 158 145 200 184 146 349 69 230 189 168 177 214 219 214 249 256 255 245 237 250 255
258 260 268 264 267 278 223 171 187 187 189 190 182 177 180 181 174 169 176 237 215 167 154 198 215 208 209 204 210 216 206 194 184 156 170 205 194 187 191 236 205 204 216 216 216 237 226 224 157 152 151 139 141 186
281 280 275 266 266 266 182 175 189 183 182 175 173 168 177 176 176 177 141 116 214 212 171 194 203 191 187 194 194 190 190 180 183 165 186 178 193 186 218 240 211 213 222 227 227 223 215 227 219 215 205 200 219 233
277 278 280 266 254 211 164 178 178 188 162 161 157 164 175 181 186 201 224 264 160 171 193 223 133 150 172 159 139 154 148 159 178 183 164 173 141 173 242 196 209 207 226 231 235 234 241 240 235 231 238 254 258 253
294 290 272 247 235 206 158 162 154 153 146 142 150 160 164 183 187 207 221 247 241 240 221 198 157 176 173 147 132 128 154 148 173 194 193 159 153 209 223 177 195 197 205 212 211 214 222 232 241 245 251 265 275 269
316 314 231 221 184 145 155 157 155 139 136 150 148 125 129 140 159 174 225 189 230 219 241 218 133 145 166 134 133 119 176 158 180 204 157 202 231 237 199 194 209 210 218 223 221 220 222 224 232 247 257 259 261 273
20 64 123 137 143 146 145 145 137 143 143 135 119 103 127 130 150 159 206 207 210 214 204 186 167 136 182 163 150 194 174 167 187 186 181 194 246 192 192 188 192 198 206 212 219 222 223 219 225 234 242 244 252 258
23 36 131 142 146 144 135 138 150 146 136 127 122 114 132 155 170 203 219 227 230 217 175 171 167 149 163 174 148 178 179 158 216 146 186 215 215 161 184 187 189 195 202 208 212 217 222 227 220 221 216 218 232 250
23 37 135 141 135 134 144 145 141 132 128 120 99 96 103 164 52 187 224 260 328 216 164 162 156 152 156 182 172 168 194 190 134 175 205 223 158 177 184 194 198 204 213 213 216 224 228 231 232 236 241 242 243 254
34 33 50 124 142 147 148 150 149 141 124 92 110 83 154 273 241 155 219 279 299 301 176 169 122 154 156 177 174 172 210 150 189 191 219 210 181 161 163 168 175 184 198 206 208 213 218 225 224 227 239 249 257 264
37 70 87 93 122 138 147 150 151 153 91 108 121 190 221 243 271 254 296 290 317 288 207 162 123 181 161 194 193 173 218 182 188 205 277 137 147 155 153 152 152 154 157 164 167 173 175 171 168 169 171 178 167 180
243 169 148 150 147 146 153 149 158 142 111 140 171 109 207 55 299 243 283 299 315 292 278 200 155 202 220 188 190 204 124 216 187 194 144 150 150 150 149 146 143 142 142 141 138 135 129 127 134 128 116 109 103 98
193 188 168 167 172 165 164 160 151 147 195 208 243 212 201 185 221 243 251 253 270 285 256 170 201 209 80 54 129 168 187 214 153 139 134 153 153 148 144 138 134 132 131 128 126 123 124 122 122 113 114 99 91 85
183 175 155 173 174 171 169 163 164 185 204 209 171 233 219 222 213 240 252 258 255 238 256 194 131 89 153 156 258 190 111 125 143 143 146 149 148 145 141 139 137 135 132 127 122 120 115 116 124 115 109 99 98 93
181 176 174 176 175 154 159 189 201 189 211 202 218 212 216 228 235 243 257 253 235 248 207 134 156 183 181 194 174 153 156 152 149 144 140 141 146 143 141 140 141 134 132 129 124 121 122 122 116 114 112 111 110 104
164 193 209 205 191 171 192 185 182 196 183 192 193 182 199 226 229 234 245 255 223 237 158 135 183 167 152 151 163 178 162 159 150 140 139 146 149 146 142 139 137 133 131 127 126 122 121 120 117 115 112 106 101 100
129 341 246 208 183 175 184 165 162 180 179 183 171 168 212 206 202 189 196 202 196 237 195 190 171 152 140 132 134 154 157 158 158 157 153 149 149 149 144 141 138 133 129 126 131 132 127 121 116 113 107 107 100 96
119 213 57 98 99 114 122 140 140 153 163 161 162 182 186 214 178 176 193 165 228 200 193 177 165 153 149 145 146 154 158 157 149 151 152 152 150 152 149 146 145 140 136 136 134 133 130 124 122 121 119 114 107 101
191 174 177 134 96 104 105 154 151 155 148 184 158 145 161 172 196 191 240 195 220 218 185 164 160 157 159 158 156 160 166 170 166 164 159 153 154 155 154 150 145 146 144 146 145 139 131 129 130 123 112 101 96 91
182 196 187 151 140 180 139 111 131 110 93 56 118 149 261 306 310 203 213 225 189 174 170 165 163 160 163 170 170 173 175 172 171 165 167 169 165 160 156 155 152 152 150 149 141 137 131 124 118 112 104 95 86 76
180 312 343 16 100 103 85 34 360 59 140 250 96 299 278 325 75 66 219 236 190 186 183 182 180 179 181 180 182 182 182 180 181 179 174 171 177 173 170 168 166 164 161 161 159 159 157 151 141 129 116 101 90 90
188 354 92 181 319 141 182 141 185 181 139 121 216 301 351 86 79 233 230 192 193 200 201 201 199 195 194 196 195 190 188 189 188 188 189 190 190 190 192 191 187 186 188 188 190 194 194 188 179 162 148 141 139 135
146 196 118 115 109 127 83 81 104 104 147 171 195 124 79 115 234 249 181 185 188 200 204 205 211 211 213 204 192 192 192 193 196 198 199 198 195 194 194 199 197 200 204 207 208 211 214 211 203 191 186 185 180 172
98 127 170 155 109 118 135 109 145 188 204 167 136 179 176 190 221 184 184 179 186 189 196 201 198 196 199 194 196 202 201 200 199 198 197 198 199 197 199 203 207 208 210 210 210 208 205 202 201 198 190 182 180 170
87 113 148 40 48 50 147 161 198 157 157 176 155 225 249 241 226 200 189 179 171 164 170 179 185 192 194 195 198 199 200 206 205 200 199 199 197 198 198 198 200 202 204 204 201 197 193 188 182 178 172 168 167 170
60 108 88 68 127 215 96 142 147 177 200 210 261 279 268 249 246 230 215 199 182 157 159 169 179 187 194 198 198 198 200 199 200 207 216 214 204 204 199 197 197 194 192 190 192 195 192 187 181 177 173 169 168 169
108 98 85 65 161 122 141 163 173 224 237 248 249 255 269 296 277 244 228 212 209 211 210 207 206 209 211 210 208 206 206 207 205 204 203 200 202 201 199 198 196 192 189 187 186 181 176 174 171 170 167 164 161 160
38 68 115 105 259 130 165 189 220 249 245 247 248 242 267 260 261 237 232 222 219 219 220 221 225 228 218 207 208 211 215 216 212 207 204 199 196 194 191 189 186 183 179 178 174 170 168 168 168 164 163 160 159 158
64 72 81 85 48 51 200 284 21 340 269 275 271 278 259 260 252 248 240 222 212 208 202 196 195 194 186 186 184 186 187 183 177 174 172 171 173 175 176 176 175 175 174 170 169 168 167 164 163 161 161 162 162 161
Height
1354 1353 1352 1353 1354 1355 1356 1360 1365 1373 1377 1383 1387 1392 1393 1394 1399 1405 1406 1408 1412 1416 1418 1416 1419 1422 1430 1434 1441 1454 1462 1466 1469 1468 1474 1479 1477 1483 1493 1493 1500 1501 1510 1519 1520 1520 1507 1476 1485 1484 1467 1464 1464 1464
1344 1344 1344 1344 1345 1347 1349 1351 1354 1364 1371 1377 1383 1387 1389 1391 1395 1400 1403 1405 1407 1413 1414 1412 1414 1418 1421 1424 1433 1441 1441 1446 1450 1459 1465 1469 1471 1478 1479 1485 1486 1483 1475 1488 1486 1480 1465 1466 1461 1461 1462 1462 1463 1463
1334 1335 1336 1336 1336 1340 1341 1343 1349 1358 1366 1373 1378 1382 1386 1388 1390 1395 1400 1401 1405 1407 1409 1412 1411 1414 1417 1421 1426 1431 1438 1439 1442 1443 1448 1457 1460 1466 1465 1468 1471 1472 1467 1474 1474 1462 1459 1456 1458 1460 1460 1460 1460 1460
1328 1330 1331 1332 1332 1334 1335 1338 1343 1352 1359 1366 1371 1377 1382 1385 1388 1391 1395 1397 1398 1403 1406 1405 1405 1409 1413 1417 1421 1426 1430 1434 1438 1441 1443 1451 1455 1453 1457 1452 1451 1455 1458 1466 1465 1455 1454 1452 1451 1452 1456 1455 1454 1456
1325 1327 1327 1328 1328 1328 1328 1332 1338 1346 1354 1362 1367 1374 1379 1383 1386 1389 1390 1391 1394 1400 1401 1403 1401 1404 1408 1413 1418 1423 1425 1429 1432 1439 1442 1446 1447 1449 1451 1451 1450 1442 1447 1451 1451 1440 1442 1443 1445 1447 1448 1449 1450 1451
1324 1324 1324 1324 1324 1324 1321 1327 1336 1344 1351 1359 1365 1372 1377 1381 1384 1385 1388 1390 1390 1396 1400 1401 1399 1400 1404 1408 1414 1418 1419 1424 1427 1429 1435 1437 1438 1440 1443 1437 1428 1429 1431 1432 1433 1436 1438 1440 1442 1443 1445 1445 1446 1448
1322 1322 1321 1320 1320 1321 1320 1327 1335 1341 1348 1355 1363 1369 1375 1379 1382 1385 1386 1388 1389 1393 1395 1400 1398 1397 1400 1406 1409 1411 1413 1416 1423 1427 1429 1431 1434 1433 1434 1425 1423 1422 1424 1428 1430 1433 1437 1437 1439 1441 1442 1444 1445 1445
1317 1316 1315 1313 1316 1319 1321 1328 1335 1340 1342 1353 1361 1368 1373 1377 1380 1384 1385 1385 1388 1392 1395 1393 1392 1396 1396 1399 1404 1407 1410 1414 1419 1422 1424 1426 1429 1430 1425 1414 1418 1420 1422 1423 1425 1428 1431 1433 1436 1437 1438 1440 1442 1442
1312 1310 1308 1310 1310 1314 1319 1329 1335 1341 1347 1355 1362 1367 1372 1377 1380 1382 1385 1387 1387 1390 1385 1385 1383 1388 1391 1394 1397 1404 1407 1414 1416 1418 1419 1421 1421 1418 1406 1412 1413 1415 1417 1418 1421 1424 1425 1427 1430 1432 1433 1434 1437 1439
1311 1305 1305 1308 1312 1314 1323 1330 1336 1344 1351 1357 1363 1368 1373 1377 1379 1382 1384 1385 1386 1383 1382 1377 1376 1381 1386 1392 1398 1404 1406 1409 1412 1413 1414 1413 1408 1400 1401 1406 1410 1411 1413 1413 1417 1421 1420 1422 1427 1429 1429 1429 1430 1435
1310 1307 1306 1312 1316 1321 1326 1332 1340 1347 1353 1358 1363 1369 1374 1377 1380 1381 1383 1382 1378 1374 1372 1371 1374 1378 1385 1390 1394 1397 1397 1401 1402 1405 1408 1406 1400 1393 1397 1401 1404 1406 1406 1408 1413 1415 1417 1416 1421 1424 1426 1425 1426 1428
1320 1315 1317 1319 1322 1326 1332 1338 1344 1349 1354 1358 1362 1369 1374 1377 1380 1382 1380 1374 1371 1369 1366 1366 1370 1374 1382 1386 1386 1390 1391 1394 1395 1396 1400 1395 1387 1392 1394 1397 1399 1401 1404 1407 1409 1411 1414 1417 1419 1419 1421 1423 1423 1425
1328 1324 1325 1326 1330 1334 1339 1344 1349 1353 1356 1361 1364 1369 1373 1379 1381 1379 1372 1368 1374 1361 1361 1363 1367 1370 1375 1377 1380 1383 1382 1384 1386 1388 1383 1384 1387 1388 1390 1394 1398 1401 1404 1404 1406 1410 1412 1415 1415 1416 1417 1419 1421 1421
1335 1333 1330 1332 1336 1340 1344 1348 1352 1354 1358 1361 1364 1377 1379 1384 1377 1369 1373 1369 1365 1361 1359 1361 1363 1365 1370 1373 1373 1376 1378 1377 1377 1376 1384 1380 1381 1385 1389 1394 1397 1400 1403 1403 1404 1407 1409 1412 1411 1411 1414 1415 1414 1416
1338 1338 1337 1338 1339 1341 1344 1348 1352 1356 1358 1361 1364 1376 1377 1368 1368 1368 1366 1365 1362 1360 1360 1361 1362 1365 1366 1369 1367 1368 1370 1363 1365 1375 1382 1381 1383 1387 1390 1391 1393 1397 1399 1403 1405 1409 1410 1408 1408 1410 1411 1412 1412 1414
1338 1340 1341 1342 1344 1346 1348 1350 1355 1357 1360 1362 1363 1366 1366 1367 1366 1366 1364 1363 1361 1358 1359 1358 1360 1359 1356 1358 1360 1359 1359 1370 1370 1380 1378 1383 1386 1390 1392 1393 1395 1398 1401 1403 1406 1408 1407 1407 1408 1410 1411 1411 1411 1414
1337 1338 1341 1343 1344 1347 1349 1353 1357 1359 1361 1361 1361 1360 1361 1362 1363 1363 1364 1363 1363 1363 1358 1356 1357 1355 1361 1362 1361 1370 1374 1376 1374 1380 1379 1387 1390 1393 1394 1395 1396 1398 1401 1403 1404 1407 1408 1409 1410 1410 1411 1412 1413 1415
1334 1338 1341 1342 1345 1347 1350 1353 1356 1358 1359 1358 1359 1358 1359 1360 1360 1361 1361 1361 1363 1361 1358 1357 1358 1361 1363 1362 1371 1371 1374 1376 1379 1381 1384 1389 1391 1393 1393 1394 1398 1399 1401 1405 1406 1407 1409 1411 1411 1411 1412 1413 1415 1416
1334 1338 1341 1343 1346 1348 1351 1353 1355 1355 1355 1355 1356 1357 1357 1357 1357 1358 1358 1359 1360 1358 1357 1356 1357 1359 1359 1361 1363 1366 1370 1373 1378 1384 1386 1388 1392 1393 1395 1397 1401 1401 1402 1405 1407 1408 1410 1412 1413 1414 1415 1415 1416 1418
1336 1338 1340 1343 1346 1348 1349 1351 1352 1351 1353 1353 1355 1354 1354 1354 1355 1355 1356 1356 1356 1356 1354 1355 1355 1356 1357 1360 1362 1365 1368 1371 1376 1383 1387 1390 1394 1396 1399 1400 1401 1403 1404 1405 1408 1410 1412 1413 1415 1416 1416 1417 1418 1418
1336 1336 1336 1336 1340 1344 1346 1347 1348 1349 1350 1350 1350 1352 1353 1353 1353 1354 1354 1355 1356 1354 1355 1353 1354 1355 1357 1360 1364 1368 1372 1373 1377 1380 1381 1387 1393 1396 1397 1400 1402 1404 1405 1405 1409 1412 1413 1414 1416 1418 1418 1418 1419 1421
1335 1335 1335 1335 1336 1340 1343 1346 1347 1348 1351 1350 1352 1352 1353 1353 1352 1353 1352 1352 1353 1352 1352 1352 1354 1356 1359 1361 1365 1371 1375 1378 1380 1383 1386 1387 1390 1394 1397 1401 1403 1404 1406 1409 1411 1413 1414 1415 1417 1419 1420 1421 1421 1422
1334 1335 1335 1336 1337 1339 1346 1346 1348 1348 1349 1350 1351 1351 1352 1352 1351 1352 1351 1350 1349 1350 1350 1351 1355 1358 1361 1363 1367 1371 1375 1379 1381 1384 1386 1388 1392 1396 1399 1401 1404 1406 1408 1410 1412 1414 1414 1415 1418 1419 1419 1420 1421 1421
1333 1333 1333 1334 1337 1343 1345 1346 1347 1348 1348 1351 1351 1353 1353 1353 1352 1352 1351 1347 1347 1349 1351 1353 1355 1358 1362 1364 1367 1370 1374 1378 1381 1384 1387 1390 1393 1396 1399 1402 1404 1406 1408 1410 1412 1413 1415 1416 1418 1419 1419 1420 1420 1420
1332 1335 1335 1337 1338 1341 1346 1348 1350 1350 1354 1358 1356 1355 1355 1355 1354 1353 1349 1343 1343 1346 1349 1353 1355 1358 1361 1363 1366 1370 1374 1377 1380 1383 1386 1389 1392 1394 1397 1400 1402 1405 1407 1409 1411 1413 1414 1415 1416 1417 1418 1419 1420 1420
1329 1335 1336 1336 1339 1338 1344 1345 1349 1350 1354 1355 1356 1355 1354 1355 1353 1350 1345 1341 1342 1344 1346 1348 1352 1355 1359 1363 1365 1368 1372 1376 1379 1383 1386 1389 1392 1395 1397 1399 1402 1404 1407 1408 1410 1411 1413 1414 1415 1416 1417 1418 1419 1420
1330 1334 1334 1335 1336 1337 1342 1344 1345 1348 1352 1349 1353 1356 1357 1357 1356 1342 1340 1341 1342 1344 1346 1350 1353 1357 1361 1363 1365 1367 1371 1374 1377 1381 1384 1387 1390 1393 1396 1399 1401 1404 1405 1406 1408 1410 1411 1413 1414 1415 1417 1418 1420 1421
1332 1334 1335 1337 1336 1337 1340 1346 1347 1345 1345 1344 1348 1349 1347 1344 1343 1340 1341 1342 1343 1344 1345 1347 1350 1353 1357 1360 1363 1366 1369 1372 1375 1378 1381 1385 1388 1390 1393 1395 1398 1400 1402 1403 1405 1407 1409 1411 1413 1415 1417 1419 1421 1422
1333 1333 1335 1338 1337 1337 1338 1340 1339 1340 1341 1342 1344 1346 1342 1339 1340 1339 1340 1340 1342 1343 1345 1346 1349 1352 1354 1357 1360 1363 1366 1369 1372 1374 1377 1381 1384 1387 1390 1393 1395 1397 1400 1402 1404 1406 1408 1410 1412 1414 1416 1418 1420 1421
1335 1335 1336 1338 1338 1338 1339 1339 1339 1340 1340 1341 1342 1341 1339 1338 1338 1339 1339 1341 1342 1343 1345 1347 1349 1351 1353 1356 1358 1361 1364 1366 1369 1373 1376 1378 1381 1383 1386 1389 1392 1395 1397 1399 1401 1403 1406 1408 1410 1412 1414 1416 1418 1421
1336 1336 1337 1337 1339 1339 1339 1339 1340 1340 1340 1340 1340 1341 1339 1337 1336 1336 1336 1338 1340 1341 1343 1345 1347 1349 1351 1353 1356 1359 1361 1364 1367 1370 1372 1375 1378 1380 1383 1386 1389 1392 1395 1397 1400 1402 1404 1407 1409 1412 1414 1416 1419 1421
1337 1337 1338 1339 1340 1340 1340 1340 1340 1340 1339 1339 1338 1338 1337 1336 1334 1332 1330 1331 1334 1336 1339 1343 1345 1347 1349 1351 1353 1355 1357 1360 1363 1366 1369 1372 1375 1378 1381 1384 1387 1390 1393 1396 1398 1401 1404 1406 1409 1411 1414 1417 1419 1422
1339 1339 1339 1339 1339 1339 1340 1340 1340 1339 1339 1337 1337 1337 1336 1336 1331 1329 1329 1328 1331 1335 1340 1343 1344 1345 1347 1350 1352 1354 1356 1358 1360 1364 1367 1371 1374 1377 1380 1383 1386 1389 1392 1396 1399 1401 1404 1406 1409 1412 1415 1418 1421 1423